Showing default

MONOLITH, 49052

Orbit data source: Space-Track

MONOLITH, 49052 is a payload satellite owned by USAF STP (US) in LEO that was launched on Thu, 29 Jul 2021 UTC via an ELECTRON launch vehicle from the Rocket Lab Launch Complex (RLLC). Payload-class satellites include a variety of spacecraft equipped with specific instruments for various scientific and technological missions. These include communications satellites like Starlink; space stations such as the ISS; scientific satellites like the Hubble; Earth observation satellites from companies like Planet Labs, Umbra, and HawkEye 360; GPS; miniature CubeSats for education and research; and military/defense satellites.

Loading next visibility...
Identifier
49052, 2021-068A
Orbit
LEO
Country
Flag of USUS
Related business
Manufacturer
AFRL/RV
Mission
Operational Defense Technology
Bus & Motor
CUBESAT 12U?, Unknown motor
Mass
20 kg wet, ~20 kg dry
Launch date (UTC)
2021-07-29 (5 years ago)
Launch vehicle
ELECTRON
Launch site
Rocket Lab Launch Complex (RLLC)
Object type
Payload
Rocket body
Debris
Shape & HBR
Box + 1 Truss, 0.1 m
Radar Cross Section
0.080 m², Medium (>0.1 m² and < 1m²)

Expand to show TLE details & history
Last TLE update: 2 days ago

TLE from 2 days ago
0 MONOLITH
1 49052U 21068A   26171.39656750  .00004012  00000-0  25271-3 0  9992
2 49052  37.0221 244.8369 0003823 247.1773 112.8569 15.09178911267762
Epoch: 2026-06-20T09:31Z
TLE epoch observation values (Epoch: 2026-06-20T09:31:03.431Z)
Latitude
-0°
Longitude
-166.53919°
Altitude
538.862 km
Speed
7.595 km/s
True Right ascension
16h 19m 20s
True Declination
0° 00' 00"
Sunlit
Object was in full shadow at epoch
Visualization orbit readout
Latitude
Unknown
Longitude
Unknown
Altitude
Unknown
Speed
Unknown
Apparent Right ascension
Unknown
Apparent Declination
Unknown
Sunlit
N/A
Visualization observer readout
Local Sidereal Time
21:26:14
Azimuth
Unknown
Elevation
Unknown
Doppler factor
Unknown
Orbital elements
Apogee altitude
544.263 km
Perigee altitude
538.972 km
Semi-major axis
6,919.754 km
Eccentricity
0.00038
Inclination
37.0221°
RAAN
244.8369°
Arg. of periapsis
247.1773°
True anomaly
112.89726°
Mean anomaly
112.8569°
Eccentric anomaly
112.87708°
Mean motion
3.77057 °/min
Orbital period
95.48 mins
BSTAR
0.00025271
Loading maneuver chart data...
Computing Atmospheric mass density...
Loading historical data...
Loading historical data...
Loading historical data...
Loading historical data...
Loading historical data...
Loading historical data...
Loading historical data...
Other satellites on launch #68 in the year 2021 (2021-07-29 UTC)

Documentation

Showing up to 5 results
|